EST,Max TemperatureF,Mean TemperatureF,Min TemperatureF,Max Dew PointF,MeanDew PointF,Min DewpointF,Max Humidity, Mean Humidity, Min Humidity, Max Sea Level PressureIn, Mean Sea Level PressureIn, Min Sea Level PressureIn, Max VisibilityMiles, Mean VisibilityMiles, Min VisibilityMiles, Max Wind SpeedMPH, Mean Wind SpeedMPH, Max Gust SpeedMPH,PrecipitationIn, CloudCover, Events, WindDirDegrees
2011-11-1,82,76,69,71,68,66,100,84,67,30.09,30.03,29.98,10,10,10,24,14,32,0.02,5,Rain,8
2011-11-2,81,78,74,68,64,59,79,66,52,30.14,30.10,30.05,10,10,10,21,14,26,T,5,,51
2011-11-3,82,74,66,65,63,57,79,67,54,30.09,30.03,29.97,10,10,10,20,9,24,0.00,4,,83
2011-11-4,82,72,62,67,63,52,97,77,54,29.96,29.89,29.80,10,10,10,17,6,25,0.00,2,,277
2011-11-5,79,68,56,68,59,50,90,75,60,30.01,29.95,29.91,10,10,7,24,13,31,0.15,3,Rain,349
2011-11-6,81,76,71,68,64,59,90,74,58,30.11,30.06,29.99,10,10,10,23,14,29,0.02,6,,54
2011-11-7,81,75,69,70,64,59,100,77,54,30.13,30.08,30.04,10,9,2,23,12,28,0.05,5,Rain,38
2011-11-8,80,73,66,69,63,60,97,76,54,30.04,30.01,29.97,10,10,10,20,10,25,0.01,5,Rain,28
2011-11-9,83,74,64,67,65,62,100,76,51,30.00,29.93,29.88,10,10,10,17,9,22,0.00,4,,339
2011-11-10,82,73,63,65,62,58,100,74,48,29.94,29.89,29.84,10,10,10,14,7,18,0.00,3,,310
2011-11-11,73,66,58,63,57,50,93,75,57,30.15,30.05,29.92,10,10,10,22,11,28,0.00,5,,332
2011-11-12,77,67,56,58,57,56,100,75,50,30.24,30.19,30.15,10,10,10,20,11,25,0.00,5,,47
2011-11-13,79,75,71,67,62,57,74,66,57,30.22,30.16,30.12,10,10,10,20,12,23,0.00,4,,83
2011-11-14,82,78,74,76,73,67,94,84,74,30.14,30.08,30.04,10,10,4,20,12,26,0.02,6,Rain,86
2011-11-15,84,80,76,77,76,75,100,90,79,30.07,30.04,30.01,10,10,10,21,12,24,T,4,,143
2011-11-16,84,80,76,75,73,71,94,82,69,30.06,30.02,29.98,10,10,10,17,10,22,0.00,3,,146
2011-11-17,87,79,71,76,74,71,100,85,70,30.07,30.02,29.94,10,8,0,16,7,20,0.08,5,Fog-Rain,270
2011-11-18,77,75,72,72,70,67,100,85,69,30.17,30.12,30.04,10,7,1,25,16,32,0.43,8,Rain-Thunderstorm,56
2011-11-19,81,77,73,72,70,69,87,81,74,30.21,30.17,30.13,10,10,10,22,16,28,T,6,,82
2011-11-20,82,78,73,75,72,70,100,85,69,30.23,30.18,30.15,10,9,2,23,15,28,0.17,6,Rain,72
2011-11-21,81,78,75,77,74,71,100,90,79,30.22,30.16,30.12,10,10,7,20,12,24,0.24,5,Rain,100
2011-11-22,81,77,72,70,68,66,87,75,62,30.17,30.13,30.10,10,10,10,15,8,17,T,3,,101
2011-11-23,84,75,66,71,68,64,100,78,55,30.12,30.06,29.98,10,10,10,14,5,17,0.00,3,,250
2011-11-24,80,73,66,71,64,55,100,77,54,30.19,30.10,30.02,10,10,10,21,11,26,0.00,4,,6
2011-11-25,78,75,72,63,57,53,68,58,47,30.21,30.16,30.13,10,10,10,23,15,30,T,5,,78
2011-11-26,81,77,72,65,61,57,73,61,48,30.21,30.15,30.12,10,10,10,25,17,32,0.00,4,,91
2011-11-27,80,75,70,70,66,57,93,74,54,30.11,30.04,29.99,10,9,2,25,14,31,0.11,6,Rain,104
2011-11-28,81,75,68,73,71,68,93,84,74,29.97,29.92,29.87,10,10,10,25,13,30,0.03,5,Rain,162
2011-11-29,76,67,57,68,59,52,100,80,60,30.02,29.96,29.92,10,10,10,18,8,22,0.00,5,,309
2011-11-30,74,64,53,59,56,52,100,81,61,30.04,30.00,29.95,10,10,10,14,6,18,0.00,1,,303